metlocid,date_time,avg_airt2m,std_airt2m,min_airt2m,max_airt2m,n_airt2m,avg_airt1m,std_airt1m,min_airt1m,max_airt1m,n_airt1m,avg_airt3m,std_airt3m,min_airt3m,max_airt3m,n_airt3m,n_comments
CAAM,12/1/94,-4.255419319,2.275321685,-11.41,2.96,1884,,,,,0,,,,,0,301
CAAM,1/1/95,-4.147562287,2.202398681,-8.76,2.46,1485,,,,,0,,,,,0,0
CAAM,11/1/95,-3.361636363,2.981230761,-10.11,5.68,990,-3.902646463,2.739235215,-10.76,2.45,990,,,,,0,0
CAAM,12/1/95,-1.575231855,2.511047298,-10.04,8.09,2976,-2.014284275,2.295866587,-9.9,5.85,2976,,,,,0,1
CAAM,1/1/96,-3.191588461,2.442048653,-9.56,7.82,2877,-3.488088287,2.268809411,-10.02,5.16,2877,,,,,0,0
CAAM,2/1/96,-7.669694692,5.116468515,-18.26,2.93,2784,-7.874809622,5.195255064,-18.59,2.91,2784,,,,,0,0
CAAM,3/1/96,-17.17849127,5.422029681,-28.3,1.51,2976,-17.53761089,5.446714222,-28.46,1.04,2976,,,,,0,0
CAAM,4/1/96,-17.6980868,5.567120822,-27.52,-3.2,2880,-18.1445486,5.554250885,-28.33,-3.64,2880,,,,,0,0
CAAM,5/1/96,-24.0037164,5.991354525,-37.24,-10.5,2976,-24.3862164,5.939436587,-37.51,-10.79,2976,,,,,0,0
CAAM,6/1/96,-25.01499654,5.73744143,-35.92,-8.31,2880,-25.44444444,5.746476705,-36.21,-8.58,2880,,,,,0,0
CAAM,7/1/96,-24.96655914,5.921001483,-37.41,-8.52,2976,-25.48055105,5.98138098,-37.85,-8.9,2976,,,,,0,0
CAAM,8/1/96,-21.67433473,5.652947135,-34.02,-7.48,1924,-22.16822766,5.570263114,-33.97,-7.95,1924,,,,,0,0
CAAM,11/1/96,-6.538699989,2.109194105,-9.24,-1.88,200,-6.482349991,2.089831063,-9.22,-2.06,200,,,,,0,0
CAAM,12/1/96,-2.151891802,2.094269334,-7.55,5.95,2976,-2.197012771,2.054929057,-7.53,5.46,2976,,,,,0,0
CAAM,1/1/97,-3.577929636,3.044025581,-9.33,2.97,1478,-3.63104872,3.011692733,-9.25,3.19,1478,,,,,0,0
CAAM,1/1/98,-5.605307201,2.676101829,-12.05,1.85,2474,,,,,0,,,,,0,0
CAAM,2/1/98,-8.651476934,3.545707562,-17.04,0.47,2688,,,,,0,,,,,0,0
CAAM,3/1/98,-19.09012769,3.780730597,-28.73,-9.33,2976,,,,,0,,,,,0,0
CAAM,4/1/98,-26.64217013,6.053805837,-37.78,-7.01,2880,,,,,0,,,,,0,0
CAAM,5/1/98,-23.56697917,6.075720806,-35.34,-4.33,2976,,,,,0,,,,,0,0
CAAM,6/1/98,-18.12228125,4.810756064,-30.08,-6.93,2880,,,,,0,,,,,0,0
CAAM,7/1/98,-24.65515457,6.187770894,-36.9,-9.33,2976,,,,,0,,,,,0,0
CAAM,8/1/98,-24.87678093,5.712380869,-35.65,-9.79,2976,,,,,0,,,,,0,0
CAAM,9/1/98,-28.62681943,6.251734293,-39.32,-4.27,2880,,,,,0,,,,,0,0
CAAM,10/1/98,-17.29313172,5.389948454,-26.28,-2.88,2976,,,,,0,,,,,0,0
CAAM,11/1/98,-10.52561112,4.623367542,-24.73,-0.16,2880,,,,,0,,,,,0,0
CAAM,12/1/98,-3.848457661,3.014536221,-11.97,3.48,2976,,,,,0,,,,,0,0
CAAM,1/1/99,-2.619469088,2.368737124,-9.07,4.31,2976,,,,,0,,,,,0,0
CAAM,2/1/99,-9.378917403,4.75711373,-20.31,-0.48,2688,,,,,0,,,,,0,0
CAAM,3/1/99,-19.11862569,4.138454093,-27.32,-7.29,2976,,,,,0,,,,,0,0
CAAM,4/1/99,-25.24907291,5.880943311,-34.32,-8.45,2880,,,,,0,,,,,0,0
CAAM,5/1/99,-25.69474125,6.322792155,-38.43,-8.01,2976,,,,,0,,,,,0,0
CAAM,6/1/99,-22.11416318,5.9601212,-33.24,-6.26,2880,,,,,0,,,,,0,0
CAAM,7/1/99,-21.84932796,6.92371855,-36.17,-7.77,2976,,,,,0,,,,,0,0
CAAM,8/1/99,-27.26350805,5.592023826,-38.61,-12.49,2976,,,,,0,,,,,0,0
CAAM,9/1/99,-20.99937846,6.039302589,-33.92,-2.52,2880,,,,,0,,,,,0,0
CAAM,10/1/99,-16.91231519,4.603912458,-29.13,-4.02,2976,,,,,0,,,,,0,0
CAAM,11/1/99,-7.991055553,3.814533299,-18.61,0.88,2880,,,,,0,,,,,0,0
CAAM,12/1/99,-3.614307796,1.955008667,-9.43,3.04,2976,,,,,0,,,,,0,0
CAAM,1/1/00,-4.155547715,2.490967054,-12.58,2.03,2976,,,,,0,,,,,0,0
CAAM,2/1/00,-9.965330452,3.610106414,-19.76,1.51,2784,,,,,0,,,,,0,0
CAAM,3/1/00,-16.61381721,4.239046775,-28.1,-4.4,2976,,,,,0,,,,,0,0
CAAM,4/1/00,-19.83649305,5.195370724,-29.84,-1.51,2880,,,,,0,,,,,0,0
CAAM,5/1/00,-23.59941955,6.44591851,-37.87,-8.94,2946,,,,,0,,,,,0,0
CAAM,6/1/00,-24.31307985,7.735563708,-36.52,-3.02,2880,,,,,0,,,,,0,0
CAAM,7/1/00,-22.72587917,7.200271402,-38.24,-6.39,2946,,,,,0,,,,,0,0
CAAM,8/1/00,-24.57872312,6.535875965,-35.55,-7.62,2976,,,,,0,,,,,0,0
CAAM,9/1/00,-24.14080557,7.559275745,-37.02,-7.59,2880,,,,,0,,,,,0,0
CAAM,10/1/00,-21.0707023,4.861283414,-31.49,-9.33,2976,,,,,0,,,,,0,0
CAAM,11/1/00,-7.367348855,5.04863351,-23.71,2.04,2878,,,,,0,,,,,0,2
CAAM,12/1/00,-4.753696238,2.035695044,-9.39,2.57,2976,,,,,0,,,,,0,0
CAAM,1/1/01,-6.450668681,2.43563224,-11.78,2.02,2976,,,,,0,,,,,0,0
CAAM,2/1/01,-8.358165722,3.1455295,-17.27,3.11,2655,,,,,0,,,,,0,33
CAAM,3/1/01,-19.97007729,5.032735298,-27.9,-0.73,2976,,,,,0,,,,,0,0
CAAM,4/1/01,-22.46150693,5.628419914,-33.21,-6.38,2880,,,,,0,,,,,0,0
CAAM,5/1/01,-22.519002,7.173326763,-35.16,-5.37,2976,,,,,0,,,,,0,0
CAAM,6/1/01,-21.84009486,6.39584809,-35.14,-4.95,2846,,,,,0,,,,,0,34
CAAM,7/1/01,-22.84029232,5.891962303,-36.17,-7.49,2976,,,,,0,,,,,0,0
CAAM,8/1/01,-31.04454969,5.072329285,-42.82,-18.65,2976,,,,,0,,,,,0,0
CAAM,9/1/01,-23.03511807,5.748115187,-37.37,-5.63,2880,,,,,0,,,,,0,0
CAAM,10/1/01,-18.3438441,5.750207837,-29.96,-4.89,2976,,,,,0,,,,,0,0
CAAM,11/1/01,-8.899965288,3.879302913,-20.18,-0.56,2880,,,,,0,,,,,0,0
CAAM,12/1/01,-1.495795378,3.171719717,-10.3,9.7,2942,,,,,0,,,,,0,0
CAAM,1/1/02,-1.853902522,3.364114071,-9.51,7.45,2975,,,,,0,,,,,0,0
CAAM,2/1/02,-8.41103795,3.803783336,-15.67,0.52,2688,,,,,0,,,,,0,0
CAAM,3/1/02,-16.316539,4.435445918,-26.94,-6.62,2976,,,,,0,,,,,0,0
CAAM,4/1/02,-21.21755556,5.42671174,-30.23,-7.7,2880,,,,,0,,,,,0,0
CAAM,5/1/02,-19.21181117,5.611253214,-32.24,-5.18,2976,,,,,0,,,,,0,0
CAAM,6/1/02,-27.97545138,6.257748978,-37.79,-10.03,2880,,,,,0,,,,,0,0
CAAM,7/1/02,-27.23988239,5.204588955,-38.53,-11.9,2976,,,,,0,,,,,0,0
CAAM,8/1/02,-29.17068885,5.984491009,-40.75,-11.24,2976,,,,,0,,,,,0,0
CAAM,9/1/02,-21.98686111,5.602309954,-33.09,-6.65,2880,,,,,0,,,,,0,0
CAAM,10/1/02,-18.06314516,3.684452491,-26.29,-6.47,2976,,,,,0,,,,,0,0
CAAM,11/1/02,-11.62780556,2.5281996,-18.62,-2.43,2880,,,,,0,,,,,0,0
CAAM,12/1/02,-5.169276246,3.034581857,-14,0.79,2943,,,,,0,,,,,0,33
CAAM,1/1/03,-2.042586406,2.761537477,-8.78,6.45,2633,,,,,0,,,,,0,0
CAAM,1/1/04,-4.925154188,1.506077468,-8.37,-1.35,227,,,,,0,,,,,0,0
CAAM,2/1/04,-10.05862788,2.957868683,-18.85,-3.04,2784,,,,,0,,,,,0,0
CAAM,3/1/04,-21.80374327,4.218041746,-30.76,-10.07,2976,,,,,0,,,,,0,0
CAAM,4/1/04,-21.34604861,4.600836006,-32.64,-11.36,2880,,,,,0,,,,,0,0
CAAM,5/1/04,-24.69154569,6.488806153,-36.68,-3.98,2976,,,,,0,,,,,0,0
CAAM,6/1/04,-22.12231944,6.955002516,-40.54,-5.15,2880,,,,,0,,,,,0,0
CAAM,7/1/04,-32.95776542,5.582916047,-44.5,-10.02,2976,,,,,0,,,,,0,0
CAAM,8/1/04,-27.66052082,5.235673435,-38.15,-8.78,2976,,,,,0,,,,,0,0
CAAM,9/1/04,-26.05281945,4.755509291,-36.63,-12.54,2880,,,,,0,,,,,0,0
CAAM,10/1/04,-18.57523522,5.592781842,-36.8,-6.46,2976,,,,,0,,,,,0,0
CAAM,11/1/04,-7.595788747,4.250639634,-19.13,1.11,2878,,,,,0,,,,,0,2
CAAM,12/1/04,-2.206491934,1.97064478,-9.6,4.72,2976,,,,,0,,,,,0,0
CAAM,1/1/05,-2.939865594,2.851340595,-9.23,6.73,2976,,,,,0,,,,,0,0
CAAM,2/1/05,-9.646093749,4.067030471,-21.13,1.32,2688,,,,,0,,,,,0,0
CAAM,3/1/05,-18.04035955,3.024704518,-25.55,-6.48,2976,,,,,0,,,,,0,0
CAAM,4/1/05,-24.29544097,4.807331213,-35.35,-12.74,2880,,,,,0,,,,,0,0
CAAM,5/1/05,-21.10002016,5.89738264,-33.89,-7.24,2976,,,,,0,,,,,0,0
CAAM,6/1/05,-25.48572569,6.43950445,-37.83,-4.08,2880,,,,,0,,,,,0,0
CAAM,7/1/05,-24.4206754,7.089834141,-39.3,-2.94,2976,,,,,0,,,,,0,0
CAAM,8/1/05,-27.42075269,7.012274732,-45.45,-8.81,2976,,,,,0,,,,,0,0
CAAM,9/1/05,-22.16642014,6.200818857,-34.15,-2.01,2880,,,,,0,,,,,0,0
CAAM,10/1/05,-17.34656248,6.322847621,-31.65,-5.25,2976,,,,,0,,,,,0,0
CAAM,11/1/05,-9.275989588,2.736107481,-16.18,-1.81,2880,,,,,0,,,,,0,0
CAAM,12/1/05,-2.217650421,2.184471892,-9.38,3.53,2975,,,,,0,,,,,0,0
CAAM,1/1/06,-3.374590054,2.360957455,-10.15,3.13,2976,,,,,0,,,,,0,0
CAAM,2/1/06,-9.028634665,2.975072917,-20.05,-1.45,2688,,,,,0,,,,,0,0
CAAM,3/1/06,-18.3451109,3.439298745,-25.64,-7.97,2976,,,,,0,,,,,0,0
CAAM,4/1/06,-25.27411803,5.096051458,-37.64,-11.52,2880,,,,,0,,,,,0,0
CAAM,5/1/06,-27.64905239,7.715158012,-39.56,-2.75,2976,,,,,0,,,,,0,0
CAAM,6/1/06,-21.71735417,7.890610779,-35.93,-4.73,2880,,,,,0,,,,,0,0
CAAM,7/1/06,-29.19203296,4.562663044,-39.5,-13.34,2976,,,,,0,,,,,0,0
CAAM,8/1/06,-19.56276883,5.2689181,-29.15,-6.86,2976,,,,,0,,,,,0,0
CAAM,9/1/06,-22.799125,6.975141382,-34.05,-6.13,2880,,,,,0,,,,,0,0
CAAM,10/1/06,-20.2972715,4.211609174,-31.55,-7.52,2976,,,,,0,,,,,0,0
CAAM,11/1/06,-9.652534736,4.820125297,-20.37,0.28,2880,,,,,0,,,,,0,0
CAAM,12/1/06,-5.184264117,2.914952065,-12.04,2.23,2976,,,,,0,,,,,0,0
CAAM,1/1/07,-1.070164651,1.924209011,-6.75,6.4,2976,,,,,0,,,,,0,0
CAAM,2/1/07,-10.50587798,4.533380844,-20.63,-2.42,2688,,,,,0,,,,,0,0
CAAM,3/1/07,-18.06920699,5.243466435,-28.58,-3.46,2976,,,,,0,,,,,0,0
CAAM,4/1/07,-22.25925695,5.829406549,-34.82,-8.51,2880,,,,,0,,,,,0,0
CAAM,5/1/07,-18.69001344,6.167290658,-31.63,-5.34,2976,,,,,0,,,,,0,0
CAAM,6/1/07,-18.04384873,5.005257099,-28.57,-4.06,2406,,,,,0,,,,,0,0
CAAM,11/1/07,-7.768809174,2.375726083,-12.71,-2.78,2049,,,,,0,,,,,0,0
CAAM,12/1/07,-3.368951611,3.551372511,-12.2,5.7,2976,,,,,0,,,,,0,0
CAAM,1/1/08,-2.505123335,2.102415856,-7.64,3.21,2473,,,,,0,,,,,0,0
CAAM,10/1/08,-17.60347894,3.891986225,-27.59,-8.61,2587,,,,,0,,,,,0,0
CAAM,11/1/08,-11.00994434,4.02909548,-19.89,-0.86,2875,,,,,0,,,,,0,0
CAAM,12/1/08,-3.105610088,2.587107899,-10.26,3.96,2975,,,,,0,,,,,0,0
CAAM,1/1/09,-3.366612904,2.290901058,-9.7,4.27,2976,,,,,0,,,,,0,0
CAAM,2/1/09,-12.0920573,5.155320586,-24.09,-0.22,2688,,,,,0,,,,,0,0
CAAM,3/1/09,-19.6435047,4.563116686,-29.88,-6.89,2976,,,,,0,,,,,0,0
CAAM,4/1/09,-17.87158682,4.618469522,-29.95,-8.7,2880,,,,,0,,,,,0,0
CAAM,5/1/09,-23.32979501,7.17633517,-35.53,-7.15,2976,,,,,0,,,,,0,0
CAAM,6/1/09,-22.55545487,6.908321502,-38.65,-6.18,2880,,,,,0,,,,,0,0
CAAM,7/1/09,-23.89075605,7.312699243,-37.3,-5.63,2976,,,,,0,,,,,0,0
CAAM,8/1/09,-25.8786559,6.515105611,-39.14,-13,2976,,,,,0,,,,,0,0
CAAM,9/1/09,-23.6665347,7.203677226,-41.42,-2.51,2880,,,,,0,,,,,0,0
CAAM,10/1/09,-19.98224796,4.250350656,-31.98,-5.92,2976,,,,,0,,,,,0,0
CAAM,11/1/09,-7.152902774,4.419938119,-17.67,3.54,2880,,,,,0,,,,,0,0
CAAM,12/1/09,-3.375084002,2.31926438,-9.35,3.25,2976,,,,,0,,,,,0,0
CAAM,1/1/10,-3.695702284,2.199499539,-9.39,2.49,2976,,,,,0,,,,,0,0
CAAM,2/1/10,-9.569735863,4.014265391,-19.1,-0.29,2688,,,,,0,,,,,0,0
CAAM,3/1/10,-16.97320228,5.54201228,-32.68,-2.65,2976,,,,,0,,,,,0,0
CAAM,4/1/10,-20.0415139,4.249280831,-30.41,-8.21,2880,,,,,0,,,,,0,0
CAAM,5/1/10,-23.45525201,6.830752959,-37.19,-10.41,2976,,,,,0,,,,,0,0
CAAM,6/1/10,-23.92271528,4.642497738,-33.23,-9.04,2880,,,,,0,,,,,0,0
CAAM,7/1/10,-26.32263441,5.906763393,-45.59,-11.98,2976,,,,,0,,,,,0,0
CAAM,8/1/10,-25.92566532,5.771797868,-36.94,-9.72,2976,,,,,0,,,,,0,0
CAAM,9/1/10,-26.17300693,5.746969863,-38.77,-12.22,2880,,,,,0,,,,,0,0
CAAM,10/1/10,-17.48317541,3.861899817,-27.85,-2.71,2976,,,,,0,,,,,0,0
CAAM,11/1/10,-8.089951384,3.020893736,-16.19,2.24,2880,,,,,0,,,,,0,0
CAAM,12/1/10,-2.326172803,3.266014973,-11.26,7.47,2963,,,,,0,,,,,0,13
CAAM,1/1/11,-4.469812785,2.881800493,-11.89,2.37,2457,,,,,0,-8.353988433,2.307427761,-12.69,-4.11,519,0
CAAM,2/1/11,,,,,0,,,,,0,-9.480613842,2.509317837,-16.33,-3.24,2688,0
CAAM,3/1/11,,,,,0,,,,,0,-17.90827284,3.931427004,-27.57,-7.15,2976,0
CAAM,4/1/11,,,,,0,,,,,0,-20.66006249,6.710442101,-32.84,-2.68,2880,0
CAAM,5/1/11,,,,,0,,,,,0,-22.18632057,5.697366363,-33.63,-7.8,2976,0
CAAM,6/1/11,,,,,0,,,,,0,-20.94073611,7.481748332,-33.55,-6.39,2880,0
CAAM,7/1/11,,,,,0,,,,,0,-19.16604503,6.728985626,-35.94,-3.21,2976,0
CAAM,8/1/11,,,,,0,,,,,0,-20.41394153,7.761984613,-35.2,-3.44,2976,0
CAAM,9/1/11,,,,,0,,,,,0,-23.74415278,8.081751061,-38.02,-8.54,2880,0
CAAM,10/1/11,,,,,0,,,,,0,-18.42393482,5.009045534,-29.18,-4.73,2976,0
CAAM,11/1/11,,,,,0,,,,,0,-7.551197917,3.290494894,-22.79,-0.64,2880,0
CAAM,12/1/11,,,,,0,,,,,0,-3.537661291,2.633985094,-9.5,3.68,2976,0
CAAM,1/1/12,,,,,0,,,,,0,-4.098739917,2.474439859,-12.09,2.69,2976,0
CAAM,2/1/12,,,,,0,,,,,0,-8.770082611,4.425086463,-21.53,0.32,2784,0
CAAM,3/1/12,,,,,0,,,,,0,-18.09949261,4.522587561,-29.99,-6.91,2976,0
CAAM,4/1/12,,,,,0,,,,,0,-21.2560972,5.659184752,-31.53,-6.25,2880,0
CAAM,5/1/12,,,,,0,,,,,0,-17.85551076,6.630972079,-30.15,-2.72,2976,0
CAAM,6/1/12,,,,,0,,,,,0,-24.58786457,6.375750149,-35.39,-7.69,2880,0
CAAM,7/1/12,,,,,0,,,,,0,-26.97441197,4.330801703,-37.79,-15.24,2976,0
CAAM,8/1/12,,,,,0,,,,,0,-25.58967739,7.119084771,-38.36,-10.12,2976,0
CAAM,9/1/12,,,,,0,,,,,0,-23.20755555,5.023031241,-33,-12.23,2880,0
CAAM,10/1/12,,,,,0,,,,,0,-18.13670699,3.082013282,-28.27,-10.41,2976,0
CAAM,11/1/12,,,,,0,,,,,0,-9.802152775,4.053970975,-21.36,-1.51,2880,0
CAAM,12/1/12,,,,,0,,,,,0,-2.424670697,2.560367362,-9.45,6.27,2976,0
CAAM,1/1/13,,,,,0,,,,,0,-3.482829303,2.212653313,-10.73,3.95,2976,0
CAAM,2/1/13,,,,,0,,,,,0,-10.84202753,3.096881467,-20.1,-2.2,2688,0
CAAM,3/1/13,,,,,0,,,,,0,-17.92211358,6.252607099,-34.46,-4.52,2976,0
CAAM,4/1/13,,,,,0,,,,,0,-25.62461807,5.566026136,-36.07,-7.41,2880,0
CAAM,5/1/13,,,,,0,,,,,0,-21.72438844,6.265848352,-37.03,-7.28,2976,0
CAAM,6/1/13,,,,,0,,,,,0,-23.88548262,6.633672407,-39.86,-8.83,2880,0
CAAM,7/1/13,,,,,0,,,,,0,-28.10868953,4.567008758,-38.16,-12.8,2976,0
CAAM,8/1/13,,,,,0,,,,,0,-24.75192203,6.244151364,-35.77,-5.41,2976,0
CAAM,9/1/13,,,,,0,,,,,0,-19.90229862,6.358096503,-32.7,-1.76,2880,0
CAAM,10/1/13,,,,,0,,,,,0,-18.14452956,4.230117171,-28.49,-6.74,2976,0
CAAM,11/1/13,,,,,0,,,,,0,-9.86829861,5.55793102,-23.68,3.02,2880,0
CAAM,12/1/13,,,,,0,,,,,0,-2.769630379,2.159954793,-7.62,3.67,2976,0
CAAM,1/1/14,,,,,0,,,,,0,-1.967456319,2.627917185,-9.58,5.31,2976,2686
CAAM,2/1/14,,,,,0,,,,,0,-9.01680804,3.811940661,-18.67,0.07,2688,2688
CAAM,3/1/14,,,,,0,,,,,0,-19.03317205,4.58987245,-31.28,-9.04,2976,2976
CAAM,4/1/14,,,,,0,,,,,0,-23.35831943,7.202538441,-37.68,-5.49,2880,2880
CAAM,5/1/14,,,,,0,,,,,0,-20.38758736,7.688413985,-37.1,-5.76,2976,2976
CAAM,6/1/14,,,,,0,,,,,0,-25.14174304,4.538269371,-33.77,-10.61,2880,2880
CAAM,7/1/14,,,,,0,,,,,0,-30.27144149,7.18500802,-39.65,-6.47,2976,2976
CAAM,8/1/14,,,,,0,,,,,0,-21.22892136,7.013557087,-37.89,-6.55,2976,2976
CAAM,9/1/14,,,,,0,,,,,0,-18.01589235,5.405063761,-30.86,-4.92,2880,2880
CAAM,10/1/14,,,,,0,,,,,0,-14.6806922,4.257202864,-26.66,-2.81,2976,2976
CAAM,11/1/14,,,,,0,,,,,0,-10.03158885,2.886585793,-18.34,-2.67,2870,2870
CAAM,12/1/14,,,,,0,,,,,0,-5.123464379,2.445452411,-12.97,2.59,2976,2976
CAAM,1/1/15,,,,,0,,,,,0,-2.993981858,2.212626421,-8.41,4.27,2976,2976
CAAM,2/1/15,,,,,0,,,,,0,-6.71357515,3.375613409,-15.36,0.62,2688,2688
CAAM,3/1/15,,,,,0,,,,,0,-19.46978495,4.426939807,-27.84,-7.56,2976,2976
CAAM,4/1/15,,,,,0,,,,,0,-25.10640971,4.758264766,-36.45,-8.73,2880,2880
CAAM,5/1/15,,,,,0,,,,,0,-26.13881383,4.63860742,-35.32,-10.96,2976,2976
CAAM,6/1/15,,,,,0,,,,,0,-24.22130903,4.966974182,-35.62,-9.92,2880,2880
CAAM,7/1/15,,,,,0,,,,,0,-27.30171704,6.126449274,-39.29,-7.99,2976,2976
CAAM,8/1/15,,,,,0,,,,,0,-25.93693883,6.564457044,-41.45,-10.56,2976,2976
CAAM,9/1/15,,,,,0,,,,,0,-27.63641665,6.202732329,-41.33,-9.95,2880,2880
CAAM,10/1/15,,,,,0,,,,,0,-16.77249663,4.297344595,-27.53,-4.22,2976,2976
CAAM,11/1/15,,,,,0,,,,,0,-9.63729044,5.697361079,-23.47,3.57,2875,2875
CAAM,12/1/15,,,,,0,,,,,0,-2.775840057,2.488202845,-8.43,6.73,2976,2976
CAAM,1/1/16,,,,,0,,,,,0,-2.314375002,2.57081738,-9.41,6.41,2976,2976
CAAM,2/1/16,,,,,0,,,,,0,-8.610269399,4.201863899,-17.87,2.06,2784,2784
CAAM,3/1/16,,,,,0,,,,,0,-18.52249326,3.708235764,-30.28,-9.96,2976,2976
CAAM,4/1/16,,,,,0,,,,,0,-24.67713193,6.726972824,-36.44,-6.7,2880,2880
CAAM,5/1/16,,,,,0,,,,,0,-23.28575268,6.720325551,-37.65,-3.79,2976,2976
CAAM,6/1/16,,,,,0,,,,,0,-27.4124722,4.16623993,-37.94,-16.07,2880,2880
CAAM,7/1/16,,,,,0,,,,,0,-30.11702618,6.214733795,-40.17,-12.15,2976,2976
CAAM,8/1/16,,,,,0,,,,,0,-23.46509072,5.840150538,-38.48,-6.01,2976,2976
CAAM,9/1/16,,,,,0,,,,,0,-26.44668057,6.370050545,-38.43,-11.56,2880,2880
CAAM,10/1/16,,,,,0,,,,,0,-20.42074287,3.764153216,-29.36,-8.38,2975,2975
CAAM,11/1/16,,,,,0,,,,,0,-9.829312496,3.394832616,-20.45,2.81,2880,2880
CAAM,12/1/16,,,,,0,,,,,0,-4.019425403,2.838217874,-13,4.76,2976,2976
CAAM,1/1/17,,,,,0,,,,,0,-3.104428765,2.14876986,-9.89,2.95,2976,2976
CAAM,2/1/17,,,,,0,,,,,0,-9.056082587,3.995599387,-17.43,1.22,2688,2688
CAAM,3/1/17,,,,,0,,,,,0,-16.97755038,4.252751107,-26.22,-6.83,2976,2976
CAAM,4/1/17,,,,,0,,,,,0,-19.50114582,4.242572985,-30.14,-10.07,2880,2880
CAAM,5/1/17,,,,,0,,,,,0,-18.77475471,4.88366625,-29.79,-4.93,2976,2976
CAAM,6/1/17,,,,,0,,,,,0,-24.29943403,6.974783959,-37.77,-9.17,2880,2880
CAAM,7/1/17,,,,,0,,,,,0,-24.90793681,5.756525833,-38.09,-9.07,2976,2976
CAAM,8/1/17,,,,,0,,,,,0,-22.96805108,6.473351356,-35.6,-7.66,2976,2976
CAAM,9/1/17,,,,,0,,,,,0,-26.80681248,5.106148381,-37.53,-11.2,2880,2880
CAAM,10/1/17,,,,,0,,,,,0,-16.7318918,5.150372284,-31.39,-7.26,2976,2976
CAAM,11/1/17,,,,,0,,,,,0,-10.76208681,4.72945596,-19.7,0.7,2880,2880
CAAM,12/1/17,,,,,0,,,,,0,-5.00699327,2.425455474,-13.61,5.28,2970,2970
CAAM,1/1/18,,,,,0,,,,,0,-3.53855571,2.612976399,-10.07,3.88,2908,2908
CAAM,2/1/18,,,,,0,,,,,0,-10.51749628,3.602892989,-21.5,-1.68,2688,2688
CAAM,3/1/18,,,,,0,,,,,0,-15.49400538,4.401696199,-27.51,-2.6,2976,2976
CAAM,4/1/18,,,,,0,,,,,0,-19.36231946,6.137963903,-31.97,-2.36,2880,2880
CAAM,5/1/18,,,,,0,,,,,0,-23.75775536,5.414724307,-33.33,-7.33,2976,2976
CAAM,6/1/18,,,,,0,,,,,0,-20.36353472,4.917939369,-31.21,-9.17,2880,2880
CAAM,7/1/18,,,,,0,,,,,0,-23.36740255,7.353679296,-38.55,-8.59,2976,2976
CAAM,8/1/18,,,,,0,,,,,0,-24.59766466,7.363652357,-35.09,-4.49,2976,2976
CAAM,9/1/18,,,,,0,,,,,0,-25.24479514,5.553189738,-36.85,-9.46,2880,2880
CAAM,10/1/18,,,,,0,,,,,0,-14.8922883,6.145809088,-26.95,-1.19,2976,2976
CAAM,11/1/18,,,,,0,,,,,0,-7.969725606,3.798558141,-18.16,2.48,2879,2558
CAAM,12/1/18,,,,,0,,,,,0,-2.24797715,2.568894305,-9.43,5.58,2976,0
CAAM,1/1/19,,,,,0,,,,,0,-3.86558132,2.148881923,-8.8,1.51,2976,0
CAAM,2/1/19,,,,,0,,,,,0,-7.978913691,2.508793712,-15.05,-1.63,2688,0
CAAM,3/1/19,,,,,0,,,,,0,-16.7709207,4.53723846,-27.03,-4.83,2976,0
CAAM,4/1/19,,,,,0,,,,,0,-20.50123611,7.084080166,-34.57,-5.21,2880,0
CAAM,5/1/19,,,,,0,,,,,0,-18.60209343,4.623529122,-27.46,-8.19,2976,0
CAAM,6/1/19,,,,,0,,,,,0,-23.88952082,7.450210427,-38.06,-7.85,2880,0
CAAM,7/1/19,,,,,0,,,,,0,-21.31807122,8.096790135,-35.09,-0.19,2976,0
CAAM,8/1/19,,,,,0,,,,,0,-23.22848116,8.302982547,-40.08,-8.59,2976,0
CAAM,9/1/19,,,,,0,,,,,0,-22.7503646,5.224645874,-32.55,-10.45,2880,0
CAAM,10/1/19,,,,,0,,,,,0,-17.97210686,3.919448946,-26.84,-8.15,2976,0
CAAM,11/1/19,,,,,0,,,,,0,-7.373152774,3.727692414,-16.95,1.66,2880,0
CAAM,12/1/19,,,,,0,,,,,0,-3.237345908,2.298780606,-9.35,5.28,2969,329
CAAM,1/1/20,,,,,0,,,,,0,-3.769290996,2.556752195,-9.51,4.79,2976,2976
CAAM,2/1/20,,,,,0,,,,,0,-7.450409486,4.685027249,-20.05,4.27,2784,2784
CAAM,3/1/20,,,,,0,,,,,0,-19.46520832,4.577309842,-33.13,-8.5,2976,2976
CAAM,4/1/20,,,,,0,,,,,0,-20.94355557,3.813030698,-29.96,-7.9,2880,2880
CAAM,5/1/20,,,,,0,,,,,0,-23.0071875,4.762650287,-31.99,-7.99,2976,2976
CAAM,6/1/20,,,,,0,,,,,0,-23.23200695,7.327946481,-38.75,-5.14,2880,2880
CAAM,7/1/20,,,,,0,,,,,0,-24.01503697,6.964109648,-36.53,-0.3,2976,2976
CAAM,8/1/20,,,,,0,,,,,0,-24.06229838,6.713726563,-40.39,-5.97,2976,2976
CAAM,9/1/20,,,,,0,,,,,0,-24.23769098,7.769107912,-39.13,-6.3,2880,2880
CAAM,10/1/20,,,,,0,,,,,0,-17.25769152,5.195714494,-27.17,-4.73,2976,2976
CAAM,11/1/20,,,,,0,,,,,0,-9.104854171,5.02584693,-20.44,1.26,2880,2880
CAAM,12/1/20,,,,,0,,,,,0,-2.152493277,2.194077164,-10.87,5.22,2976,2976
CAAM,1/1/21,,,,,0,,,,,0,-2.459246172,1.914302589,-8,2.72,1698,1698
CAAM,2/1/21,,,,,0,,,,,0,-9.034846315,4.624575384,-18.58,1.45,1399,1399
CAAM,3/1/21,,,,,0,,,,,0,-16.56619531,3.710695236,-22.99,-5.31,1280,1280
CAAM,4/1/21,,,,,0,,,,,0,-27.31139933,6.417318459,-40.27,-11.33,2880,2880
CAAM,5/1/21,,,,,0,,,,,0,-27.28219971,6.393953468,-38.12,-8.69,1923,1923
CAAM,8/1/21,,,,,0,,,,,0,-21.7134615,6.357694487,-30.45,-11.33,104,104
CAAM,9/1/21,,,,,0,,,,,0,-23.35752015,3.866335585,-34.2,-9.92,1613,1614
CAAM,10/1/21,,,,,0,,,,,0,-16.81604196,3.985469899,-26.39,-4.42,2860,2860
CAAM,11/1/21,,,,,0,,,,,0,-8.49069816,3.434084276,-18.65,1.13,2879,2879
CAAM,12/1/21,,,,,0,,,,,0,-1.932280624,2.648346837,-8.76,6.01,2245,2245